GAOFEN 11 2

导读

高分十一号02星(GAOFEN 11 2)由中国研制,于2020年9月7日成功发射,是一颗高分辨率光学遥感卫星。它地面像元分辨率最高可达亚米级,可服务于国土普查、城市规划、土地确权、农作物估产和防灾减灾等领域,能够为“一带一路”建设等国家发展战略提供重要的空间信息保障,助力我国遥感应用发展。

基本信息
目录编号:
46396
目录名称:
GAOFEN 11 2
国际标识:
2020-064A
轨道中心:
EARTH
卫星名称:
GAOFEN 11 2
卫星全名:
--
卫星状态:
在轨 (已飞行2104 天)
发射日期:
2020-09-07 UTC
国别 :
中国 (CN)
星等 :
--
轨道信息
数据来源 国际轨道数据
星历时间: 2026-06-12T16:05:41+0800
12小时前
查看轨道信息
半长轴: 6873.253km
偏心率: 0.0016525
轨道倾角: 97.513°
近地点辐角 320.648°
升交点赤经 289.348°
平近点角 39.355°
近地点: 483.757km
远地点: 506.475km
周期: 94.516分钟
每日圈数: 15.23559
详细信息
使用方式:
暂无
2D轨道图
3D轨道图
轨道高度分析图
轨道倾角分析图
轨道综合分析图
查看轨道综合分析图